Temperature
23 22 21 21 22 22 22 21 20 21 22 21 21 21 21 21 21 21 21 22 21 21 20 20 20 20 19 19 19 18 18 18 17 17 17 17 16 16 16 16 16 16 16 15
22 21 22 23 23 22 22 21 20 21 21 21 20 21 21 21 21 21 21 22 21 21 20 20 20 20 19 19 19 18 18 18 17 17 17 17 16 16 16 16 16 16 15 15
21 22 24 23 22 22 22 21 21 20 21 21 21 20 21 21 21 21 21 22 21 21 21 20 20 19 19 19 19 18 18 18 17 17 17 17 16 16 16 16 15 15 15 15
22 23 24 23 23 23 22 23 22 22 21 20 21 20 21 21 21 21 21 21 21 21 21 20 20 19 19 19 18 18 18 18 17 17 17 17 16 16 16 15 15 15 15 15
23 24 23 23 23 23 22 23 23 22 21 21 22 20 21 22 21 21 21 22 22 21 21 20 20 19 19 19 18 18 18 18 17 17 17 17 16 16 16 15 15 15 15 15
24 24 24 24 24 24 23 23 22 22 21 20 22 22 21 22 22 22 22 22 22 21 21 20 20 19 19 18 18 18 18 17 17 17 16 16 16 16 16 15 15 15 15 15
23 24 24 24 23 24 23 22 21 20 20 21 23 22 22 24 24 23 23 22 22 21 21 20 20 19 19 18 18 18 17 17 17 16 16 16 16 16 15 15 15 15 15 14
22 23 24 24 24 23 23 22 20 20 20 21 23 23 24 25 24 24 23 23 22 21 21 20 19 19 18 18 18 17 17 17 17 17 16 16 16 16 15 15 15 15 15 14
23 23 25 25 25 24 23 23 22 21 22 22 23 24 24 24 24 24 24 23 22 22 21 20 19 19 18 18 18 17 17 17 17 17 16 16 16 16 15 15 15 15 15 14
24 23 24 24 24 25 24 24 23 22 22 22 23 24 23 23 23 24 24 23 22 22 21 20 19 19 18 18 18 17 17 17 17 16 16 16 16 16 15 15 15 15 15 15
25 24 24 24 23 24 24 24 24 24 23 22 22 23 26 24 24 24 24 23 23 22 21 20 19 19 18 18 17 17 17 17 17 16 16 16 16 16 15 15 15 15 15 14
26 24 23 24 25 25 25 25 25 23 23 24 23 23 26 25 25 25 24 24 23 22 21 20 20 19 18 18 17 17 17 17 17 16 16 16 16 16 15 15 15 15 15 14
25 24 22 23 24 25 25 25 25 24 24 24 23 24 26 26 26 25 24 24 23 22 21 20 19 19 18 18 17 17 17 17 17 17 16 16 16 16 15 15 15 15 15 14
25 25 23 23 23 24 24 25 25 25 24 24 24 25 25 25 25 25 24 24 23 22 21 20 19 19 18 18 17 17 17 17 17 17 16 16 16 16 15 15 15 15 15 14
25 25 25 25 26 26 25 25 25 25 25 24 25 25 26 25 25 25 24 23 23 22 21 20 19 19 18 18 17 17 17 17 17 17 16 16 16 16 15 15 15 15 14 14
25 25 25 25 26 26 26 26 26 25 26 25 25 25 26 27 26 25 24 23 22 22 21 20 19 19 18 18 18 17 17 17 17 17 16 16 16 16 15 15 15 15 14 14
26 25 25 25 26 25 25 26 26 26 26 26 25 25 26 26 26 25 24 23 22 22 21 20 19 19 19 18 18 18 17 17 17 17 16 16 16 16 15 15 14 14 14 14
26 25 25 24 25 23 26 28 27 26 26 27 26 26 26 26 25 25 24 23 23 22 21 20 20 19 19 19 18 18 17 17 17 16 16 16 16 15 15 15 14 14 14 14
27 25 24 24 23 24 26 27 27 26 25 27 26 26 26 25 25 24 23 23 23 22 21 21 20 20 19 19 18 18 17 17 17 16 16 16 16 15 15 15 15 14 14 14
26 25 24 24 23 23 25 26 27 26 24 26 26 26 25 25 23 23 23 23 22 22 21 20 20 19 19 19 18 18 17 17 17 17 16 16 16 15 15 15 15 14 14 14
24 24 23 23 23 24 25 26 26 24 24 26 25 25 25 24 23 23 23 22 21 21 21 20 20 19 19 19 18 18 17 17 17 17 16 16 15 15 15 15 14 14 14 13
25 24 24 24 23 23 25 25 25 24 25 25 24 24 24 23 23 23 22 21 21 20 20 19 19 19 19 18 18 18 17 17 16 16 16 15 15 15 15 14 14 14 13 13
25 25 24 24 24 24 24 24 24 24 24 24 23 23 23 23 22 22 21 21 20 20 19 19 19 18 18 18 18 17 17 17 16 16 16 15 15 15 14 14 14 13 13 13
25 26 25 24 24 24 24 23 23 23 23 22 22 22 22 22 22 21 20 20 19 19 19 18 18 18 17 17 17 17 17 16 16 16 15 15 15 14 14 14 13 13 13 13
23 24 24 23 23 23 23 22 22 22 22 22 21 21 21 21 21 20 20 19 19 18 18 18 18 17 17 17 17 16 16 16 15 15 15 14 14 14 14 13 13 13 13 13
23 23 23 22 23 23 22 21 21 21 21 21 21 20 20 20 20 20 19 19 18 18 18 17 17 17 17 16 16 16 16 15 15 14 14 14 14 13 13 13 13 13 12 12
Wind_Speed
4 3 2 3 4 3 5 5 6 4 4 5 5 7 8 8 6 6 6 8 9 10 8 7 6 5 5 5 7 6 4 4 4 3 3 3 3 3 4 5 8 8 9 10
1 1 3 3 4 3 5 6 7 5 5 5 5 5 6 8 8 7 6 7 9 9 9 7 5 4 4 5 5 5 5 5 5 3 2 2 3 4 3 4 6 9 10 10
1 1 4 6 5 5 4 6 7 6 6 4 5 3 7 8 7 5 5 6 8 9 10 9 7 5 4 4 5 5 5 6 5 4 3 3 3 2 3 3 3 6 9 9
2 2 3 4 3 3 3 4 6 7 6 4 6 3 7 10 9 9 8 7 7 8 8 8 7 7 6 5 4 5 4 5 5 5 3 3 3 3 3 3 3 4 7 7
2 3 2 2 3 3 3 5 5 5 4 3 6 3 5 11 12 12 12 10 9 9 9 8 8 7 7 6 4 4 5 5 5 5 3 3 3 3 3 3 4 4 4 6
2 2 1 2 3 3 4 4 3 4 3 4 7 6 5 9 13 14 13 12 11 10 9 9 8 7 7 6 5 5 6 6 4 4 4 4 4 4 4 3 2 2 2 2
5 6 4 4 5 6 6 4 2 3 3 3 5 4 4 8 11 12 13 13 12 11 10 9 9 8 8 8 6 6 6 5 4 3 4 5 3 3 3 2 2 2 2 2
4 5 7 6 5 4 7 5 1 1 2 2 5 4 3 7 8 9 10 12 12 12 11 10 10 9 9 8 7 7 7 5 4 3 4 4 3 2 2 2 2 2 3 2
3 3 7 6 5 4 5 5 4 3 5 3 4 4 5 7 8 8 10 11 11 11 11 11 10 10 9 9 7 7 7 6 5 4 3 3 4 3 3 2 3 3 2 2
2 3 7 6 5 7 6 6 4 4 2 2 2 4 6 10 9 9 9 10 11 11 12 11 10 10 9 8 8 8 7 7 5 4 3 3 3 4 2 2 3 2 3 2
4 3 6 8 7 8 8 8 5 3 3 2 1 1 3 11 11 11 10 10 10 11 11 11 10 10 9 9 8 7 7 7 6 5 4 4 4 4 3 3 3 2 2 1
4 2 5 8 7 6 6 7 5 3 3 3 1 1 3 9 10 11 10 10 10 11 11 10 10 10 9 9 9 8 7 6 6 5 5 5 5 5 5 5 4 3 2 1
2 2 3 4 5 7 6 7 6 5 5 4 2 1 3 7 9 9 9 9 9 9 10 10 10 9 9 9 8 8 7 7 6 5 5 6 6 6 5 5 4 2 3 2
3 5 5 4 3 6 8 8 8 7 5 5 3 2 4 4 6 8 8 8 9 9 9 9 9 9 9 8 8 7 7 7 7 6 5 6 6 6 5 5 4 2 2 1
5 7 7 6 6 6 7 8 9 10 9 8 6 3 3 6 6 8 8 8 8 9 10 10 9 9 9 9 8 7 7 7 7 7 6 5 5 6 5 5 4 3 2 1
8 8 9 8 7 7 8 9 10 11 10 9 8 6 2 3 5 7 9 9 9 9 10 10 10 9 10 10 9 8 8 8 8 7 6 5 4 5 5 5 4 3 2 1
9 9 8 7 6 7 9 9 10 9 9 8 7 4 2 3 3 4 7 9 8 9 9 10 10 10 10 10 10 9 9 8 8 7 6 6 6 5 5 5 5 4 3 2
8 8 5 7 7 8 4 1 2 4 5 5 4 2 1 2 4 4 5 6 7 8 8 9 9 9 9 8 9 9 9 8 8 7 6 6 6 6 5 5 4 4 3 3
8 7 6 6 8 7 4 1 2 3 3 3 3 2 1 2 4 4 4 4 5 7 7 7 7 8 8 8 8 9 9 8 8 7 7 7 7 7 6 6 5 4 3 3
7 7 7 7 8 7 1 3 3 1 3 1 1 2 2 3 3 2 3 5 5 5 5 6 6 7 7 7 8 8 9 8 8 8 7 7 7 7 7 6 5 4 4 3
9 8 9 9 9 6 1 4 1 2 2 4 4 4 2 2 2 2 5 5 5 5 5 6 6 6 6 7 8 8 7 7 7 7 7 7 7 7 6 6 5 4 4 4
8 6 8 8 9 4 3 2 1 4 5 6 5 4 3 2 2 4 5 5 5 5 5 6 5 5 5 6 7 7 6 6 6 7 7 6 6 6 6 6 5 5 4 4
6 4 2 2 0 4 3 4 5 5 5 6 5 4 2 1 1 3 4 5 5 5 5 5 5 5 5 5 6 6 5 6 6 7 7 6 6 5 5 6 6 5 4 4
5 4 4 3 1 2 3 3 3 4 4 5 4 3 2 0 1 3 3 4 4 5 5 5 5 5 5 5 6 5 5 6 6 7 7 6 6 6 6 4 5 4 4 4
4 3 3 4 3 1 1 2 3 3 3 3 3 3 3 1 1 1 3 4 4 5 5 5 5 5 5 5 6 6 6 6 6 6 6 6 6 6 5 5 5 5 5 5
7 5 4 3 2 2 2 4 5 3 3 3 3 3 3 1 1 1 2 4 4 4 5 5 5 5 5 5 6 6 6 6 6 5 5 4 4 4 4 5 4 6 6 8
Wind_Direction
211 218 187 197 202 166 152 136 129 136 145 133 144 160 174 175 182 175 179 171 158 144 135 127 124 131 127 115 112 117 114 96 85 61 67 74 69 64 52 53 36 38 33 21
157 237 165 140 122 138 147 138 135 137 153 144 158 183 189 186 194 193 191 175 161 151 150 146 144 140 130 115 113 118 107 96 92 83 83 86 84 89 83 57 38 37 40 22
162 216 155 146 146 157 164 157 145 151 153 167 167 202 203 194 196 191 202 192 170 165 164 161 160 151 139 126 127 120 125 120 113 105 80 71 68 68 81 79 60 42 46 30
168 185 161 156 155 144 139 141 158 166 166 188 192 196 204 193 188 191 204 199 179 174 167 161 164 160 151 140 130 126 117 108 108 106 83 99 97 84 75 81 89 72 53 43
166 145 150 163 143 131 140 155 174 191 196 210 206 204 208 190 191 195 198 194 183 175 171 168 167 159 149 142 134 119 105 91 84 91 77 62 72 86 79 75 71 73 58 50
157 156 176 172 138 140 148 157 192 225 230 238 217 205 201 191 193 188 187 185 182 177 171 166 156 146 137 129 121 106 97 91 89 103 108 93 88 86 85 75 71 87 84 58
171 177 176 183 173 171 193 192 197 202 221 237 214 217 203 187 183 181 180 180 181 173 170 164 156 152 140 138 137 131 125 129 140 138 124 113 103 102 97 98 78 69 76 56
198 177 177 191 207 195 208 217 234 283 245 223 195 209 151 147 156 169 173 172 174 172 170 165 159 154 146 148 154 148 141 144 152 153 132 128 127 108 99 79 84 74 75 67
228 175 164 185 212 225 217 224 211 258 271 237 189 157 132 138 148 158 166 168 173 172 165 161 157 155 154 158 160 156 153 155 162 153 132 123 120 106 114 121 86 78 89 74
247 180 174 177 221 235 247 255 246 242 286 286 210 180 168 166 165 166 168 171 170 169 165 161 159 159 161 162 164 166 160 157 159 159 156 132 124 119 115 105 94 87 85 65
237 206 179 180 212 220 215 235 243 265 268 285 335 41 142 166 170 175 178 175 168 164 163 162 160 161 161 158 163 164 160 159 162 161 147 142 148 146 147 126 123 139 135 190
227 250 216 206 203 223 244 247 248 270 287 283 267 134 132 152 164 172 175 173 169 164 161 159 159 159 160 164 170 168 168 162 161 163 158 161 156 162 168 158 168 179 155 182
270 230 222 204 195 203 233 246 251 260 277 278 288 123 140 146 155 160 166 165 161 159 159 159 159 164 166 169 174 172 169 163 161 163 166 168 172 172 172 163 163 176 162 175
295 254 243 242 243 215 220 228 238 250 266 280 272 179 171 153 151 153 156 157 159 162 162 162 163 165 166 171 176 170 165 159 160 167 180 183 177 163 167 161 156 171 158 148
246 265 266 256 247 227 229 227 230 242 254 269 284 282 187 174 168 155 151 152 159 164 167 169 170 169 169 174 178 172 166 163 166 170 181 184 171 155 153 143 145 146 127 130
236 267 271 264 250 243 245 237 235 240 251 260 269 277 242 171 152 154 157 159 166 171 174 172 175 174 178 180 180 173 168 170 170 174 177 169 157 144 145 147 151 142 133 113
225 247 271 274 264 258 253 239 229 235 242 248 256 255 182 165 158 160 158 161 169 174 174 176 180 181 185 185 180 175 173 169 171 170 168 162 158 151 154 159 152 151 153 143
244 256 267 277 273 264 263 228 212 239 256 257 267 256 198 161 145 140 149 162 170 171 172 177 181 181 181 180 174 169 165 168 170 167 165 162 161 158 157 158 162 171 166 162
246 261 268 269 269 266 270 257 198 224 263 271 262 223 146 123 127 125 140 152 161 166 169 174 177 172 171 174 171 165 166 169 170 169 169 165 163 162 162 167 170 171 172 173
232 252 256 261 269 272 275 76 62 341 266 0 77 98 109 135 166 155 138 140 144 144 152 160 165 166 169 170 162 166 171 172 173 169 168 164 164 165 169 173 174 172 174 183
206 223 234 251 261 268 17 110 151 256 25 56 60 60 72 98 93 114 116 118 129 132 138 145 156 166 167 162 159 169 172 175 166 158 159 160 161 166 170 173 174 172 178 185
232 225 229 237 250 256 77 133 77 39 32 36 48 48 52 61 59 102 116 123 129 129 133 142 153 156 153 153 157 168 173 164 149 149 153 161 164 172 177 171 177 182 186 192
242 243 263 265 108 94 76 46 39 29 15 24 30 23 24 18 53 117 130 136 140 143 144 147 148 146 149 154 159 170 165 149 146 150 158 164 167 169 169 174 182 189 192 196
274 264 242 264 232 90 84 69 40 24 15 17 12 356 336 333 112 124 142 144 147 151 152 153 154 161 168 166 164 167 154 150 157 166 170 175 179 178 180 181 184 190 198 206
302 294 260 257 268 302 87 53 33 25 9 7 357 345 337 332 155 151 163 158 157 160 159 164 171 172 175 169 169 166 161 163 173 180 179 182 184 184 183 183 191 195 199 199
279 282 267 261 300 298 34 41 31 12 353 346 348 343 337 331 218 185 173 157 157 165 166 171 171 172 181 177 173 171 170 174 185 192 189 187 183 181 183 186 201 211 208 206
Height
1502 1505 1509 1507 1506 1507 1510 1515 1522 1522 1520 1523 1526 1528 1529 1530 1532 1534 1536 1538 1540 1543 1546 1549 1551 1552 1554 1555 1555 1556 1557 1557 1557 1557 1557 1557 1557 1557 1556 1555 1555 1555 1554 1553
1505 1509 1505 1503 1503 1506 1511 1518 1522 1522 1521 1524 1528 1529 1527 1529 1531 1533 1534 1536 1539 1542 1545 1548 1550 1552 1553 1554 1555 1556 1557 1557 1557 1557 1557 1558 1558 1557 1557 1556 1556 1556 1555 1554
1510 1508 1503 1505 1506 1509 1512 1516 1520 1523 1523 1524 1528 1533 1528 1527 1530 1532 1533 1535 1537 1540 1544 1547 1549 1551 1553 1554 1555 1556 1557 1557 1557 1557 1558 1558 1558 1558 1557 1557 1556 1556 1555 1554
1507 1504 1503 1505 1507 1508 1516 1511 1515 1519 1526 1530 1528 1540 1530 1525 1528 1530 1532 1533 1535 1538 1542 1545 1548 1550 1552 1554 1555 1556 1557 1557 1557 1557 1558 1558 1558 1558 1558 1558 1557 1557 1556 1555
1505 1503 1505 1507 1506 1507 1512 1510 1514 1517 1522 1527 1525 1534 1530 1521 1526 1527 1529 1531 1534 1537 1540 1543 1546 1548 1550 1552 1554 1555 1556 1556 1557 1557 1557 1558 1558 1558 1558 1558 1558 1557 1557 1556
1503 1503 1505 1506 1505 1507 1509 1513 1515 1517 1524 1536 1523 1528 1528 1519 1518 1520 1524 1528 1531 1535 1538 1541 1544 1547 1549 1551 1552 1553 1554 1555 1556 1557 1557 1557 1557 1558 1558 1558 1558 1557 1557 1557
1506 1504 1504 1505 1508 1509 1511 1520 1533 1537 1539 1533 1516 1520 1519 1508 1508 1513 1518 1523 1528 1532 1536 1539 1542 1545 1547 1549 1551 1552 1553 1554 1555 1556 1556 1557 1557 1557 1557 1558 1558 1558 1557 1557
1511 1512 1504 1504 1506 1509 1511 1517 1535 1544 1540 1528 1515 1518 1509 1502 1506 1510 1515 1520 1525 1529 1533 1537 1540 1543 1545 1547 1549 1551 1552 1553 1554 1555 1556 1556 1556 1557 1557 1557 1557 1557 1557 1557
1508 1510 1500 1502 1502 1504 1511 1513 1514 1525 1523 1526 1517 1510 1506 1502 1506 1509 1513 1518 1522 1527 1531 1534 1538 1540 1543 1545 1547 1549 1550 1552 1553 1553 1554 1555 1555 1555 1556 1556 1557 1557 1557 1557
1500 1508 1502 1502 1504 1504 1505 1506 1512 1519 1529 1532 1519 1512 1512 1508 1507 1509 1512 1516 1520 1524 1528 1532 1535 1538 1541 1543 1545 1547 1549 1550 1551 1552 1552 1553 1553 1554 1554 1555 1555 1556 1556 1556
1495 1504 1505 1503 1506 1505 1505 1506 1506 1509 1513 1527 1530 1520 1495 1500 1502 1506 1509 1513 1517 1522 1525 1529 1533 1536 1539 1541 1543 1545 1547 1548 1549 1550 1550 1551 1551 1552 1553 1554 1554 1555 1555 1556
1493 1499 1506 1502 1496 1496 1498 1499 1502 1516 1515 1510 1517 1517 1491 1494 1498 1503 1507 1511 1515 1519 1523 1527 1530 1534 1537 1539 1541 1543 1545 1546 1547 1548 1548 1549 1549 1550 1551 1552 1553 1554 1555 1555
1493 1500 1513 1512 1507 1500 1499 1497 1498 1502 1506 1510 1517 1514 1492 1493 1497 1501 1505 1509 1513 1517 1521 1525 1528 1531 1534 1536 1539 1541 1542 1543 1544 1545 1546 1547 1548 1549 1550 1551 1552 1553 1554 1555
1495 1496 1505 1515 1507 1498 1499 1498 1496 1501 1509 1509 1506 1504 1496 1495 1497 1500 1504 1507 1511 1515 1518 1522 1525 1528 1531 1534 1536 1538 1540 1541 1542 1543 1544 1545 1546 1547 1549 1550 1551 1552 1553 1554
1493 1496 1493 1492 1489 1489 1492 1493 1494 1498 1499 1504 1500 1497 1494 1493 1495 1498 1502 1506 1510 1513 1517 1520 1522 1526 1528 1531 1534 1536 1537 1538 1540 1541 1542 1543 1545 1546 1547 1548 1549 1550 1551 1552
1491 1493 1491 1491 1485 1486 1489 1488 1490 1492 1492 1494 1494 1494 1488 1490 1493 1497 1500 1504 1508 1511 1514 1517 1520 1523 1526 1528 1531 1533 1534 1536 1537 1539 1540 1541 1543 1544 1545 1547 1548 1549 1550 1551
1487 1490 1494 1495 1487 1488 1494 1484 1484 1486 1485 1488 1493 1490 1486 1489 1492 1495 1498 1501 1505 1508 1511 1514 1517 1520 1522 1525 1528 1530 1531 1533 1535 1536 1538 1539 1541 1542 1543 1545 1546 1547 1548 1549
1484 1487 1491 1494 1494 1506 1487 1473 1476 1480 1481 1481 1482 1484 1485 1488 1491 1494 1497 1500 1503 1506 1508 1511 1514 1517 1520 1523 1525 1527 1529 1531 1533 1534 1536 1537 1538 1540 1541 1543 1544 1545 1546 1547
1480 1485 1492 1495 1500 1494 1482 1474 1475 1481 1483 1480 1481 1482 1485 1487 1490 1493 1496 1498 1500 1503 1506 1509 1512 1515 1517 1520 1522 1525 1526 1528 1530 1532 1533 1535 1536 1537 1539 1540 1542 1543 1544 1545
1479 1482 1490 1494 1501 1502 1485 1475 1475 1480 1487 1480 1480 1482 1484 1487 1492 1495 1495 1496 1499 1501 1504 1506 1509 1512 1515 1517 1520 1522 1524 1526 1527 1529 1531 1532 1533 1535 1536 1538 1539 1540 1541 1542
1485 1486 1491 1494 1496 1488 1477 1476 1477 1491 1490 1481 1481 1483 1485 1487 1490 1493 1493 1495 1497 1499 1502 1504 1507 1510 1512 1515 1517 1519 1521 1523 1524 1527 1528 1530 1531 1532 1533 1535 1536 1537 1538 1539
1477 1483 1485 1487 1493 1492 1477 1477 1481 1484 1482 1482 1483 1485 1486 1488 1490 1491 1492 1494 1496 1498 1500 1502 1505 1507 1510 1512 1514 1516 1518 1520 1522 1524 1525 1526 1528 1529 1530 1532 1533 1534 1535 1536
1470 1473 1475 1479 1483 1479 1478 1479 1481 1482 1483 1484 1485 1486 1487 1488 1489 1490 1492 1493 1495 1497 1498 1500 1503 1505 1507 1509 1511 1513 1515 1518 1519 1520 1522 1523 1525 1526 1527 1528 1529 1531 1532 1532
1467 1467 1471 1475 1475 1476 1478 1480 1481 1482 1483 1484 1485 1486 1487 1488 1488 1490 1491 1492 1494 1495 1497 1499 1501 1503 1505 1507 1509 1511 1513 1514 1516 1517 1518 1520 1521 1522 1523 1525 1526 1526 1527 1528
1469 1469 1470 1474 1475 1476 1478 1479 1481 1482 1483 1484 1484 1485 1486 1487 1487 1488 1490 1491 1492 1493 1495 1496 1498 1500 1502 1504 1506 1508 1510 1511 1512 1514 1515 1516 1517 1518 1519 1520 1521 1522 1523 1524
1470 1470 1473 1476 1476 1476 1478 1479 1480 1481 1482 1483 1483 1484 1485 1485 1486 1487 1488 1489 1490 1492 1493 1494 1496 1498 1499 1501 1503 1505 1506 1508 1509 1510 1511 1512 1513 1514 1515 1516 1517 1518 1519 1519